Lincoln, NE

11:20 AM CDT on July 27, 2016 (GMT -0500)
Lincoln Municipal

Weather History for KLNK - May, 2012

Change the Weather History Date:

Tuesday, May 22, 2012

  Actual Average Record
Temperature  
Mean Temperature 70 °F 64 °F  
Max Temperature 86 °F 76 °F 96 °F (1925)
Min Temperature 54 °F 53 °F 36 °F (1963)
Degree Days  
Heating Degree Days 0 3  
Month to date heating degree days 51 127  
Since 1 July heating degree days 5065 6020  
Cooling Degree Days 5 3  
Month to date cooling degree days 84 34  
Year to date cooling degree days 138 48  
Growing Degree Days 20 (Base 50)    
Moisture  
Dew Point 46 °F    
Average Humidity 49    
Maximum Humidity 71    
Minimum Humidity 27    
Precipitation  
Precipitation T in 0.14 in 2.43 in (1965)
Month to date precipitation 2.05 3.06  
Year to date precipitation 8.69 9.11  
Snow  
Snow 0.00 in 0.00 in - ()
Month to date snowfall 0.0 0.1  
Since 1 July snowfall 18.8 26.0  
Snow Depth 0.00 in    
Sea Level Pressure  
Sea Level Pressure 29.86 in    
Wind  
Wind Speed 17 mph (South)    
Max Wind Speed 30 mph    
Max Gust Speed 37 mph    
Visibility 10 miles    
Events      
T = Trace of Precipitation, MM = Missing Value Source: NWS Daily Summary

Daily Weather History Graph

Daily Weather History Graph

Search for Another Location

Airport or City:

Trip Planner

Search our weather history database for the weather conditions in past years. The results will help you decide how hot, cold, wet, or windy it might be!

Date:

Astronomy

May. 22, 2012 Rise Set
Actual Time 6:03 AM CDT 8:44 PM CDT
Civil Twilight 5:31 AM CDT 9:16 PM CDT
Nautical Twilight 4:51 AM CDT 9:56 PM CDT
Astronomical Twilight 4:06 AM CDT 10:42 PM CDT
Moon 7:14 AM CDT (5/22) 10:23 PM CDT (5/22)
Length of Visible Light 15h 45m
Length of Day
14h 41m
Waxing Crescent, 3% of the Moon is Illuminated
May 22
Waxing Crescent
May 28
First Quarter
Jun 4
Full
Jun 11
Last Quarter
Jun 19
New

Hourly Weather History & Observations

Time (CDT) Temp. Dew Point Humidity Pressure Visibility Wind Dir Wind Speed Gust Speed Precip Events Conditions
12:54 AM 57.9 °F 43.0 °F 58% 30.05 in 10.0 mi South 9.2 mph - N/A   Clear
1:54 AM 55.9 °F 43.0 °F 62% 30.05 in 10.0 mi South 6.9 mph - N/A   Clear
2:54 AM 53.6 °F 44.6 °F 72% 30.05 in 10.0 mi SSE 6.9 mph - N/A   Clear
3:54 AM 55.9 °F 44.1 °F 64% 30.03 in 10.0 mi South 5.8 mph - N/A   Clear
4:54 AM 57.9 °F 44.1 °F 60% 30.01 in 10.0 mi SSE 10.4 mph - N/A   Overcast
5:54 AM 61.0 °F 43.0 °F 52% 30.01 in 10.0 mi South 8.1 mph - N/A   Mostly Cloudy
6:54 AM 60.1 °F 45.0 °F 57% 30.02 in 10.0 mi South 10.4 mph - 0.00 in   Overcast
7:54 AM 61.0 °F 45.0 °F 56% 30.01 in 10.0 mi South 10.4 mph - N/A   Clear
8:54 AM 64.9 °F 45.0 °F 48% 29.98 in 10.0 mi South 19.6 mph 25.3 mph N/A   Clear
9:54 AM 69.1 °F 45.0 °F 42% 29.95 in 10.0 mi South 23.0 mph 27.6 mph N/A   Clear
10:54 AM 72.0 °F 45.0 °F 38% 29.93 in 10.0 mi South 18.4 mph 27.6 mph N/A   Clear
11:54 AM 75.9 °F 46.9 °F 36% 29.90 in 10.0 mi South 17.3 mph 25.3 mph N/A   Clear
12:54 PM 80.1 °F 46.9 °F 31% 29.86 in 10.0 mi South 24.2 mph 27.6 mph N/A   Clear
1:54 PM 82.9 °F 46.0 °F 27% 29.81 in 10.0 mi South 21.9 mph 29.9 mph N/A   Clear
2:54 PM 84.9 °F 48.0 °F 28% 29.78 in 10.0 mi South 23.0 mph 32.2 mph N/A   Clear
3:54 PM 86.0 °F 48.0 °F 27% 29.75 in 10.0 mi South 24.2 mph 32.2 mph N/A   Clear
4:54 PM 86.0 °F 46.9 °F 26% 29.71 in 10.0 mi South 24.2 mph 29.9 mph N/A   Clear
5:54 PM 84.0 °F 46.9 °F 27% 29.69 in 10.0 mi South 19.6 mph 29.9 mph N/A   Clear
6:54 PM 82.0 °F 46.9 °F 29% 29.67 in 10.0 mi South 24.2 mph 36.8 mph N/A   Clear
7:54 PM 80.1 °F 46.9 °F 31% 29.67 in 10.0 mi South 18.4 mph 26.5 mph N/A   Clear
8:54 PM 79.0 °F 46.0 °F 31% 29.68 in 10.0 mi South 19.6 mph - N/A   Clear
9:54 PM 73.9 °F 46.0 °F 37% 29.68 in 10.0 mi South 12.7 mph 21.9 mph N/A   Clear
10:54 PM 72.0 °F 46.0 °F 40% 29.66 in 10.0 mi SSE 16.1 mph - N/A   Clear
11:54 PM 71.1 °F 46.0 °F 41% 29.65 in 10.0 mi South 19.6 mph 28.8 mph N/A   Clear